CAPE
72 498 1687 1525 1985 2294 2091 2149 1954 1428 1823 2410 1792 2109 1558 1331 1239 1385 1830 2339 2139 2362 2345 2425 2386 2195 2022 2216 2209 2315 2285 2120 2048 2163 2019 1927 1828 1905 1848 1731 981 752 1456
56 904 1989 1926 1914 2312 2483 2163 2096 1543 2026 2428 1958 2448 1533 1271 1474 2251 1572 1627 2237 2223 2127 2245 2365 2436 2273 2200 2299 2577 2365 2220 2097 2334 2176 1831 1900 1427 1231 1617 949 518 1316
493 1375 1879 2437 2081 2282 2499 2296 2103 1662 2253 2152 2025 2018 1795 1985 1622 1720 1584 1490 1878 2044 1870 1990 2187 2366 2505 2333 2418 2303 2373 2354 2263 2225 2072 1370 1236 1820 1607 1799 1082 719 293
979 1358 1791 2581 2647 2430 2427 2354 2028 1917 2503 2003 2213 2134 2007 2163 1817 1635 1905 1805 1591 1829 1943 1972 1981 2211 2158 2011 2033 1788 2316 2297 1956 1794 970 980 974 951 1635 1544 1049 1686 1506
1121 1374 1586 2323 2523 2328 2299 2283 2143 2060 2396 1953 2315 1884 1923 1938 1980 1870 1879 1704 1672 1576 1732 1863 1986 2115 1986 1922 1873 1871 2212 2073 1894 1289 1058 1142 966 1540 1657 1784 588 808 1441
1152 1242 2096 2090 2021 2272 2355 2253 2211 2103 2134 1960 2026 1927 1869 1852 1440 1770 1467 1529 1703 1554 1682 1677 1742 1859 1959 1874 1795 2050 2311 2068 1759 1379 1675 1978 1641 1611 1627 1581 504 481 805
1013 1453 1669 2405 2175 2322 2278 2272 2173 2111 2097 1994 1753 1846 1616 1861 1746 1682 1504 1323 1202 1289 1337 1361 1667 1852 1785 1708 1891 2136 2238 1952 1169 1315 1354 1532 1639 2291 1823 1604 601 382 417
1358 1605 1891 2236 1997 1961 1965 2115 2114 1983 1981 1985 1791 1869 1801 1459 1700 1529 1498 1377 1315 1112 1104 1406 1511 1722 1820 1847 2498 2212 2167 1848 1359 1279 1417 1639 1814 2029 2068 829 1511 1373 1434
1467 1475 1649 1822 1941 1969 2068 2070 2076 2003 2017 1885 1759 1807 1758 1714 1518 1622 1420 1354 1163 1188 1170 1212 1296 1492 1628 1723 1873 2164 1800 1674 1054 1277 1683 1450 2319 2141 1126 1387 1537 1057 829
1215 1249 1295 1509 1604 1649 1784 2028 2046 2053 2112 1815 1823 1517 1581 1326 1504 1624 1821 1737 1285 1147 1253 1307 1366 1481 1294 1622 1905 1993 1688 1603 948 1167 1280 1542 2209 1625 1931 1890 1673 1590 970
1062 1016 1052 1125 1308 1408 1486 1613 1736 1979 1788 1637 1496 1722 1342 539 947 1047 1504 1497 1397 1308 1127 1209 1178 1322 1438 1414 1722 2084 1610 882 963 1125 1347 2191 2327 1945 1618 1657 1564 1273 1308
776 969 889 895 1054 1222 1678 1625 1412 1413 1283 1206 945 476 363 478 452 832 1305 1419 1366 1385 1413 1476 1235 1545 1084 663 1032 1564 561 751 907 1058 1338 2146 2244 1512 1754 1105 1166 1482 1272
683 1038 720 752 904 1117 1297 1103 974 985 907 839 573 301 355 284 677 696 738 656 660 1058 809 685 850 520 390 701 521 763 467 644 795 1088 1612 2240 2104 1645 1555 1573 1362 1176 1350
415 603 648 735 784 732 1005 925 793 880 774 385 246 166 187 171 248 392 421 363 422 347 341 300 209 529 673 381 257 263 511 593 642 984 1559 2070 2029 1346 1594 1546 989 1169 1074
227 392 538 617 447 489 905 671 665 602 712 352 60 282 75 21 36 118 334 444 215 367 224 36 56 252 161 217 269 213 442 516 718 954 1165 1443 2086 1492 1221 1269 1170 1165 1092
86 166 370 399 201 334 609 457 528 418 535 182 99 177 44 0 11 209 187 125 128 62 350 78 56 233 434 282 144 259 458 495 729 897 881 1013 1521 1650 1442 1432 1148 1309 868
35 3 293 209 133 364 546 377 249 198 303 115 74 21 52 0 6 133 19 23 26 19 244 88 25 351 505 117 95 70 142 343 607 740 743 790 1217 1612 1423 1062 991 940 713
40 26 123 345 243 287 222 196 87 57 143 64 20 0 167 127 115 322 0 39 89 141 156 143 25 214 111 46 49 2 0 38 181 368 367 439 638 1121 1547 1663 1385 892 592
35 61 107 255 238 171 120 76 125 47 116 42 33 25 240 77 119 257 39 67 110 215 214 23 109 28 56 75 104 99 29 13 0 11 111 98 117 266 142 668 1790 1495 716
19 60 104 178 204 94 268 0 25 159 48 71 85 94 538 261 261 2 0 52 54 29 40 45 20 18 10 29 82 90 44 125 210 28 41 50 37 34 32 26 98 762 1195
50 31 51 168 46 123 73 10 67 222 107 105 88 281 485 406 56 0 0 39 0 5 101 54 17 41 4 0 5 0 0 0 60 172 102 218 354 355 297 212 73 232 397
43 35 75 129 0 113 77 115 89 136 224 279 173 331 384 553 523 270 289 468 0 12 35 28 15 75 16 0 4 0 0 0 0 4 3 76 276 420 537 427 321 324 269
0 0 82 54 0 85 84 125 87 54 79 404 341 542 832 592 650 564 417 480 145 2 26 0 31 40 16 8 0 16 17 0 0 0 0 0 6 15 292 477 477 392 220
0 0 29 0 0 96 63 180 207 177 135 127 424 194 866 864 953 568 553 289 113 38 160 254 348 45 4 19 6 0 0 0 0 0 0 0 0 0 0 74 341 504 551
0 0 0 0 0 85 52 103 222 134 52 0 236 309 498 913 804 1022 667 375 205 48 105 234 362 285 162 101 56 83 0 0 0 0 0 0 0 0 0 14 26 41 198
0 0 0 0 0 48 69 31 133 249 167 74 56 236 389 653 833 626 848 641 338 69 203 247 235 457 510 570 203 180 28 0 0 16 0 0 0 0 0 0 1 3 3
CIN
-96 -46 -0 -0 -0 -0 -0 -0 -1 -29 -14 -0 -9 -0 -7 -14 -16 -9 -0 -0 -0 -0 -0 -0 -0 -0 -0 -0 -0 -0 -0 -0 -0 -0 -0 -0 -0 -0 -0 -0 -0 -2 -0
-165 -20 -0 -0 -0 -0 -0 -0 -0 -25 -2 -0 -0 -0 -10 -20 -3 -0 -0 -0 -0 -0 -0 -0 -0 -0 -0 -0 -0 -0 -0 -0 -0 -0 -0 -0 -0 -0 -0 -0 -0 -26 -0
-61 -4 -1 -0 -0 -0 -0 -0 -0 -2 -0 -0 -0 -0 -0 -0 -0 -0 -0 -0 -0 -0 -0 -0 -0 -0 -0 -0 -0 -0 -0 -0 -0 -0 -0 -12 -3 -0 -0 -0 -0 -3 -36
-26 -6 -2 -0 -0 -0 -0 -0 -0 -0 -0 -0 -0 -0 -0 -0 -0 -0 -0 -0 -0 -0 -0 -0 -0 -0 -0 -0 -0 -3 -0 -0 -0 -2 -34 -19 -9 -0 -0 -0 -0 -0 -0
-14 -10 -3 -0 -0 -0 -0 -0 -0 -0 -0 -0 -0 -0 -0 -0 -0 -0 -0 -0 -0 -1 -0 -0 -0 -0 -0 -1 -0 -11 -0 -0 -0 -27 -36 -16 -10 -0 -0 -0 -17 -1 -0
-13 -20 -0 -0 -0 -0 -0 -0 -0 -0 -0 -0 -0 -0 -0 -0 -0 -0 -0 -0 -0 -0 -0 -0 -0 -0 -0 -2 -3 -2 -0 -0 -16 -32 -12 -7 -5 -0 -0 -0 -26 -17 -2
-22 -3 -0 -0 -0 -0 -0 -0 -0 -0 -0 -0 -0 -0 -0 -0 -0 -0 -0 -0 -0 -0 -0 -0 -0 -4 -1 -4 -0 -1 -1 -6 -66 -45 -30 -13 -4 -0 -0 -0 -19 -38 -29
-9 -3 -1 -0 -0 -0 -0 -0 -0 -0 -0 -0 -0 -0 -0 -0 -0 -0 -0 -0 -0 -0 -0 -0 -0 -2 -2 -0 -0 -2 -1 -4 -39 -56 -37 -13 -2 -0 -0 -11 -0 -0 -0
-1 -6 -5 -3 -1 -0 -2 -0 -0 -0 -0 -0 -0 -0 -0 -0 -0 -0 -0 -0 -0 -0 -0 -0 -3 -3 -4 -3 -2 -0 -4 -11 -67 -43 -9 -27 -0 -0 -2 -0 -0 -0 -0
-6 -20 -14 -11 -10 -7 -2 -0 -0 -0 -0 -0 -0 -0 -0 -0 -0 -0 -0 -0 -0 -0 -0 -0 -4 -7 -11 -6 -2 -4 -8 -7 -60 -44 -42 -14 -0 -0 -0 -0 -0 -0 -0
-1 -24 -32 -22 -18 -14 -8 -4 -1 -0 -0 -0 -1 -0 -16 -45 -10 -8 -2 -0 -0 -0 -2 -10 -19 -17 -12 -9 -4 -3 -20 -81 -64 -45 -34 -2 -0 -0 -0 -0 -0 -0 -0
-22 -11 -41 -47 -34 -17 -4 -12 -10 -10 -19 -17 -21 -61 -76 -55 -48 -29 -3 -0 -2 -2 -4 -10 -20 -17 -61 -113 -72 -38 -132 -93 -64 -50 -29 -1 -0 -0 -0 -4 -0 -1 -0
-61 -16 -63 -66 -50 -29 -19 -46 -53 -56 -51 -48 -71 -113 -95 -91 -53 -63 -68 -87 -70 -45 -67 -65 -75 -127 -151 -127 -146 -128 -160 -112 -81 -47 -11 -1 -0 -0 -0 -0 -0 -0 -0
-98 -79 -82 -71 -66 -70 -62 -67 -81 -78 -68 -99 -131 -158 -163 -137 -122 -108 -118 -135 -130 -138 -123 -146 -163 -124 -130 -176 -196 -217 -152 -130 -118 -67 -15 -0 -0 -1 -0 -0 -9 -0 -0
-132 -111 -99 -95 -119 -108 -72 -94 -97 -103 -83 -109 -164 -144 -216 -176 -182 -178 -143 -141 -162 -164 -178 -190 -248 -157 -191 -190 -187 -191 -153 -155 -125 -81 -43 -3 -0 -1 -6 -1 -1 -0 -0
-144 -144 -119 -120 -163 -141 -103 -124 -115 -119 -100 -132 -156 -164 -172 -0 -106 -168 -173 -178 -177 -231 -182 -238 -225 -162 -164 -193 -198 -166 -151 -158 -126 -87 -75 -47 -2 -0 -0 -0 -11 -0 -9
-151 -13 -140 -156 -181 -127 -111 -131 -140 -158 -119 -149 -177 -217 -187 -0 -144 -181 -185 -226 -278 -316 -178 -221 -226 -180 -145 -192 -215 -278 -215 -163 -130 -99 -106 -96 -40 -1 -1 -16 -7 -7 -25
-167 -189 -165 -96 -141 -121 -147 -165 -170 -172 -151 -170 -208 -0 -168 -184 -182 -166 -0 -199 -214 -213 -191 -204 -224 -182 -173 -229 -241 -330 -0 -302 -195 -148 -155 -133 -101 -48 -14 -3 -8 -23 -61
-204 -195 -163 -124 -143 -159 -150 -160 -152 -168 -142 -181 -195 -198 -167 -198 -185 -173 -210 -188 -202 -174 -175 -278 -217 -214 -205 -200 -212 -262 -336 -377 -0 -179 -282 -257 -255 -172 -236 -101 -5 -8 -71
-72 -205 -178 -161 -145 -165 -148 -0 -132 -178 -207 -193 -150 -156 -132 -175 -174 -66 -0 -193 -203 -199 -224 -225 -198 -204 -206 -230 -188 -223 -305 -275 -243 -397 -366 -319 -342 -329 -337 -353 -312 -122 -42
-169 -182 -187 -162 -226 -174 -175 -138 -188 -163 -173 -162 -152 -145 -144 -146 -215 -0 -0 -201 -0 -184 -161 -186 -202 -150 -88 -0 -126 -0 -0 -1 -354 -302 -361 -257 -190 -204 -249 -304 -388 -345 -300
-186 -201 -203 -178 -0 -200 -182 -175 -162 -164 -178 -154 -169 -130 -144 -113 -120 -148 -138 -129 -0 -187 -185 -178 -170 -227 -190 -0 -78 -0 -0 -0 -0 -335 -369 -382 -261 -227 -209 -275 -331 -356 -396
-0 -0 -207 -211 -0 -211 -191 -182 -211 -234 -202 -113 -124 -106 -98 -112 -114 -111 -134 -139 -187 -12 -163 -0 -180 -171 -127 -132 -101 -126 -102 -6 -0 -0 -0 -0 -200 -210 -346 -300 -322 -382 -458
-0 -0 -217 -0 -0 -214 -238 -155 -117 -111 -100 -148 -138 -171 -93 -91 -75 -121 -116 -155 -183 -270 -164 -142 -154 -180 -165 -102 -212 -0 -0 -0 -0 -0 -0 -0 -0 -0 -0 -504 -395 -393 -409
-0 -0 -0 -0 -0 -218 -244 -188 -157 -145 -178 -0 -158 -113 -126 -95 -88 -73 -109 -137 -166 -235 -175 -137 -134 -153 -189 -177 -238 -222 -0 -0 -0 -0 -0 -0 -1 -0 -0 -538 -598 -615 -577
-0 -0 -0 -0 -0 -265 -252 -276 -194 -125 -138 -154 -181 -129 -138 -124 -104 -112 -96 -123 -150 -240 -161 -141 -157 -141 -135 -140 -211 -207 -119 -0 -0 -195 -0 -0 -0 -0 -0 -0 -228 -223 -236
Wind_Speed
5 6 10 11 12 13 14 13 11 13 13 12 13 13 13 12 12 11 11 11 11 11 12 12 13 13 14 15 16 16 16 16 15 14 16 16 16 15 16 17 16 9 16
10 8 12 12 14 13 13 12 12 11 11 11 10 11 12 12 12 10 12 10 10 12 12 12 13 13 14 15 15 15 16 15 15 17 17 15 15 16 15 15 16 11 14
11 8 9 12 13 14 13 13 12 11 10 12 10 11 10 10 11 11 11 11 10 11 12 12 13 12 13 14 14 15 15 15 15 16 15 5 7 15 15 16 15 15 15
11 6 7 12 12 15 15 14 12 11 10 11 10 10 8 10 10 9 10 11 10 10 12 13 11 12 12 13 13 13 14 15 15 13 5 5 9 13 13 15 13 14 14
10 7 9 14 14 16 15 14 13 11 11 11 10 10 9 10 10 10 12 11 10 12 12 12 11 11 11 11 10 10 11 14 15 10 6 6 4 11 13 14 13 12 13
10 7 13 15 15 15 16 14 13 11 12 11 11 10 10 10 11 11 12 11 10 11 12 12 10 11 11 11 13 15 15 14 12 6 5 6 5 12 13 12 13 13 12
8 6 10 13 14 14 16 14 13 13 11 12 11 10 10 10 10 10 11 10 10 10 11 10 10 11 11 11 11 13 13 13 6 5 5 5 5 11 12 14 12 12 11
11 6 7 14 15 14 14 13 13 13 12 11 10 10 9 10 10 10 11 10 10 10 10 10 10 10 10 11 11 13 13 12 6 5 5 4 8 10 13 11 10 12 9
9 7 5 6 10 14 14 13 13 12 12 11 10 10 11 10 11 11 10 11 11 11 10 10 10 10 10 10 11 10 11 12 5 3 5 3 8 12 11 11 9 11 10
7 7 5 5 5 5 6 13 13 12 11 10 11 9 10 10 11 11 8 10 11 11 11 11 10 8 8 9 11 10 11 12 4 4 3 2 9 10 9 10 9 10 9
6 5 5 5 5 5 4 7 11 12 11 11 9 8 6 4 4 6 6 9 10 10 11 11 10 9 8 8 8 11 11 3 4 3 1 5 7 9 8 9 8 7 6
11 6 5 6 5 5 4 5 4 5 3 3 4 4 3 4 3 3 5 8 8 9 10 10 10 9 6 3 2 6 3 4 3 3 1 4 7 8 8 8 7 5 6
12 8 7 6 5 5 4 3 2 2 3 2 4 4 3 2 1 1 2 2 2 4 3 4 4 2 4 2 0 3 5 4 3 2 2 6 6 7 7 6 6 4 3
12 10 9 6 6 4 4 3 2 2 3 2 3 4 4 3 1 2 1 1 2 1 2 3 2 2 1 0 3 4 5 4 3 2 2 6 5 7 6 6 5 4 3
11 9 10 7 6 5 5 3 2 2 2 3 3 4 4 4 3 2 2 2 1 1 0 2 2 2 1 3 3 5 5 5 5 2 1 8 6 7 7 6 5 4 4
10 10 8 8 6 6 4 5 4 3 3 3 3 4 5 4 4 3 2 1 1 2 1 2 2 3 3 3 3 3 4 4 4 3 3 3 7 6 6 6 6 5 4
11 11 9 8 7 7 6 5 4 3 3 4 4 4 5 5 5 4 3 2 2 1 1 2 3 1 3 3 3 2 3 4 3 3 4 2 3 7 7 7 6 6 6
11 12 10 10 8 8 6 5 4 4 4 4 3 3 5 5 5 4 4 2 2 2 2 1 2 0 1 1 2 2 2 2 3 4 3 3 3 2 6 8 7 7 7
14 13 11 9 9 8 6 5 5 6 4 4 4 3 5 6 6 4 2 3 2 2 1 2 1 1 2 1 1 2 2 3 3 3 5 5 5 4 3 6 8 8 10
14 14 14 10 10 8 5 3 1 2 2 4 4 4 5 4 5 4 3 2 3 2 2 1 2 1 2 2 1 2 3 3 3 4 5 4 4 5 4 5 4 4 9
13 14 14 13 9 8 4 4 2 3 2 2 3 5 5 5 5 5 3 3 3 3 3 3 2 2 1 1 3 2 2 4 5 4 3 4 5 5 5 5 3 3 4
18 17 15 13 10 9 5 3 3 2 1 1 3 3 5 5 5 5 5 5 4 3 3 2 2 2 1 2 3 2 2 4 3 4 3 4 6 3 4 5 5 5 5
16 15 16 14 12 9 7 5 4 4 3 2 1 2 4 5 5 4 4 4 5 3 3 2 3 4 3 0 2 3 1 3 2 2 3 4 5 4 4 5 5 5 5
19 16 16 14 12 8 9 7 6 5 4 3 3 2 4 5 5 4 4 4 5 3 4 2 2 2 3 2 1 0 1 3 2 4 2 3 4 5 5 4 5 5 6
19 17 15 14 12 10 10 10 6 5 3 2 2 3 4 4 5 5 5 6 5 4 4 4 3 3 1 2 2 1 0 1 2 2 3 4 3 3 4 5 5 4 5
18 17 15 16 14 11 11 9 10 9 6 4 3 4 4 3 4 5 5 5 5 4 5 4 3 4 3 2 2 2 2 2 1 1 0 2 2 4 3 4 5 5 5
Wind_Direction
179 172 159 143 141 137 132 128 120 111 107 102 101 107 103 103 104 107 107 109 112 103 97 101 104 108 104 106 107 105 102 103 101 104 100 99 98 100 94 96 97 86 101
146 163 161 152 148 147 134 129 122 113 108 109 111 104 99 106 107 113 117 108 102 105 115 110 108 109 112 110 109 104 103 102 100 111 103 102 100 94 100 100 96 95 86
144 159 157 149 150 150 143 135 130 127 128 121 118 107 107 114 113 112 114 118 117 121 112 113 115 114 109 111 109 106 108 106 100 97 98 85 107 100 103 99 96 101 96
143 146 152 144 146 149 149 143 137 138 134 126 123 120 119 112 113 113 114 116 120 125 121 114 111 109 108 112 112 113 115 108 105 91 65 69 91 100 95 93 91 89 95
138 137 149 143 144 146 146 145 147 146 138 132 125 121 116 112 114 106 109 110 111 114 109 109 112 108 110 109 109 126 132 108 104 88 71 72 96 112 107 97 89 87 87
135 137 149 148 147 149 149 152 153 147 143 139 126 134 131 125 121 117 112 109 107 109 116 110 113 115 110 108 107 104 115 111 101 82 84 98 95 103 103 105 91 90 87
129 142 148 151 149 148 146 153 152 150 147 136 137 143 128 127 121 123 108 106 104 101 102 111 114 110 104 106 112 115 116 116 92 85 84 84 89 110 107 98 101 102 96
135 134 154 156 155 151 152 151 155 144 144 143 140 134 136 131 126 124 115 118 117 116 114 112 109 102 92 89 113 123 119 120 95 87 95 99 114 107 102 102 107 104 96
135 127 129 141 153 154 148 150 147 150 144 142 142 139 142 145 136 126 124 116 109 109 114 115 112 107 98 90 114 119 113 119 92 87 105 89 97 101 104 104 97 95 85
131 126 131 126 111 122 139 147 149 151 146 146 142 142 140 142 139 127 122 121 114 115 112 111 112 106 96 97 116 119 122 121 103 90 83 123 131 114 105 101 96 102 96
130 127 120 119 115 125 141 154 149 148 148 147 143 135 89 72 93 115 142 126 119 119 119 119 119 112 102 104 103 116 121 115 110 106 85 132 116 119 109 102 92 99 111
156 153 139 136 143 149 146 110 128 159 111 120 114 108 105 103 128 155 138 129 124 119 124 129 125 124 99 61 42 105 125 123 119 129 144 151 131 116 106 111 120 105 89
160 162 156 155 154 160 121 141 145 124 127 127 143 144 133 94 67 81 51 59 59 96 64 94 92 95 125 94 143 161 145 130 134 143 175 162 150 131 132 136 121 131 131
168 167 162 163 161 161 141 152 171 159 145 163 180 177 133 133 122 142 132 172 122 124 110 86 100 140 90 44 158 140 136 134 145 152 205 150 160 157 159 151 153 153 161
170 165 170 161 169 152 158 149 174 194 164 185 180 178 143 140 164 195 182 193 174 328 239 133 99 50 66 14 180 157 143 148 158 154 192 179 194 177 176 172 179 179 192
175 169 167 167 169 153 161 176 185 185 199 199 198 194 175 153 173 195 186 241 236 254 263 313 354 327 341 13 77 166 139 139 151 163 190 211 195 199 201 197 205 209 218
178 168 171 165 163 165 178 188 181 201 192 198 189 186 178 179 178 191 160 221 220 281 205 327 316 305 352 20 79 75 119 156 164 195 209 207 231 216 221 227 225 229 239
164 173 168 175 174 178 175 190 199 188 185 196 175 193 191 186 168 194 167 181 190 223 234 168 246 276 14 90 100 180 146 181 198 213 216 212 231 240 246 240 242 244 252
168 165 170 174 171 184 175 197 205 185 187 176 170 183 213 176 183 172 181 182 159 197 219 200 258 157 153 180 175 200 181 207 218 229 236 215 229 234 248 262 259 249 255
172 174 170 173 170 172 149 146 108 145 189 164 173 190 201 180 184 163 171 176 131 173 210 171 173 58 109 183 136 145 214 222 228 228 232 234 231 229 237 248 262 265 266
171 171 174 169 173 154 161 138 128 171 164 165 170 189 202 184 181 162 156 160 136 170 205 185 119 124 34 105 76 333 298 242 240 237 229 235 241 234 232 238 243 251 269
175 179 173 180 174 172 157 142 134 144 164 171 167 186 208 180 186 175 169 166 151 138 142 130 106 109 105 169 150 87 336 328 306 241 231 241 246 238 240 237 234 243 249
176 181 180 179 179 178 158 119 89 67 48 68 154 191 209 199 195 187 179 173 157 153 159 158 155 135 136 199 210 136 55 251 326 339 265 242 245 240 246 245 236 235 239
184 186 181 176 181 181 161 152 144 162 161 208 175 191 199 201 203 194 188 180 161 164 158 162 138 115 114 163 29 324 187 158 155 338 309 292 244 254 251 249 246 243 239
178 185 183 180 183 183 176 167 154 157 183 176 168 191 207 202 203 206 204 183 183 172 178 176 152 166 150 144 143 184 73 53 95 125 292 320 323 263 252 238 240 248 247
182 183 181 178 188 182 177 172 168 165 172 169 200 199 208 208 205 220 213 207 195 182 177 182 167 169 185 132 131 228 180 162 224 157 350 295 253 294 274 253 233 241 250